Weather History for Fort Leonard Wood, MO

Change the Weather History Date:

Sunday, January 20, 2013

  Actual Average Record
Temperature  
Mean Temperature 34 °F -  
Max Temperature 43 °F 39 °F 66 °F (2005)
Min Temperature 22 °F 25 °F 2 °F (2008)
Degree Days  
Heating Degree Days 32    
Moisture  
Dew Point 18 °F    
Average Humidity 51    
Maximum Humidity 75    
Minimum Humidity 28    
Precipitation  
Precipitation 0.00 in - - ()
Sea Level Pressure  
Sea Level Pressure 30.26 in    
Wind  
Wind Speed 6 mph (North)    
Max Wind Speed 10 mph    
Max Gust Speed -    
Visibility 10 miles    
Events      
Averages and records for this station are not official NWS values.
T = Trace of Precipitation, MM = Missing Value Source: NWS Daily Summary

Daily Weather History Graph

Daily Weather History Graph

Search for Another Location

Airport:

Trip Planner

Search our weather history database for the weather conditions in past years. The results will help you decide how hot, cold, wet, or windy it might be!

Date:

Astronomy

Jan. 20, 2013 Rise Set
Actual Time 7:20 AM CST 5:19 PM CST
Civil Twilight 6:52 AM CST 5:47 PM CST
Nautical Twilight 6:20 AM CST 6:19 PM CST
Astronomical Twilight 5:48 AM CST 6:50 PM CST
Moon 12:20 PM CST (1/20) 1:53 AM CST (1/20)
Length of Visible Light 10h 55m
Length of Day
9h 58m
Waxing Gibbous, 66% of the Moon is Illuminated
Jan 20
Waxing Gibbous
Jan 26
Full
Feb 3
Last Quarter
Feb 10
New
Feb 17
First Quarter

Hourly Weather History & Observations

Time (CST) Temp. Windchill Dew Point Humidity Pressure Visibility Wind Dir Wind Speed Gust Speed Precip Events Conditions
12:55 AM 42.3 °F 38.6 °F 30.6 °F 63% 30.20 in 10.0 mi NW 5.8 mph - N/A   Clear
1:55 AM 40.8 °F 37.8 °F 29.8 °F 65% 30.21 in 10.0 mi NW 4.6 mph - N/A   Clear
2:55 AM 38.5 °F 33.4 °F 29.7 °F 71% 30.23 in 10.0 mi NW 6.9 mph - N/A   Clear
3:55 AM 37.0 °F 30.4 °F 29.8 °F 75% 30.25 in 10.0 mi NNW 9.2 mph - N/A   Clear
4:55 AM 35.2 °F 28.1 °F 24.4 °F 65% 30.25 in 10.0 mi NNW 9.2 mph - N/A   Clear
5:55 AM 32.7 °F 25.0 °F 20.3 °F 60% 30.25 in 10.0 mi North 9.2 mph - N/A   Clear
6:55 AM 30.6 °F 23.8 °F 17.8 °F 59% 30.27 in 10.0 mi NNW 6.9 mph - N/A   Clear
7:55 AM 29.8 °F 23.9 °F 17.2 °F 59% 30.29 in 10.0 mi North 5.8 mph - N/A   Clear
8:55 AM 32.2 °F 25.8 °F 18.5 °F 57% 30.30 in 10.0 mi NNE 6.9 mph - N/A   Clear
9:55 AM 34.5 °F 28.6 °F 16.2 °F 47% 30.32 in 10.0 mi North 6.9 mph - N/A   Clear
10:55 AM 36.9 °F - 15.6 °F 42% 30.30 in 10.0 mi Calm Calm - N/A   Scattered Clouds
11:55 AM 39.6 °F 36.3 °F 13.8 °F 35% 30.27 in 10.0 mi East 4.6 mph - N/A   Partly Cloudy
12:55 PM 41.5 °F 38.6 °F 13.8 °F 32% 30.24 in 10.0 mi Variable 4.6 mph - N/A   Clear
1:55 PM 43.5 °F 40.9 °F 13.5 °F 30% 30.22 in 10.0 mi Variable 4.6 mph - N/A   Clear
2:55 PM 43.7 °F - 12.0 °F 28% 30.23 in 10.0 mi Calm Calm - N/A   Clear
3:55 PM 42.4 °F 40.7 °F 11.7 °F 29% 30.23 in 10.0 mi ENE 3.5 mph - N/A   Clear
4:55 PM 40.8 °F 36.2 °F 13.6 °F 33% 30.24 in 10.0 mi North 6.9 mph - N/A   Clear
5:55 PM 36.1 °F 31.4 °F 17.1 °F 46% 30.25 in 10.0 mi NNE 5.8 mph - N/A   Clear
6:55 PM 33.1 °F 26.9 °F 12.0 °F 42% 30.26 in 10.0 mi NNE 6.9 mph - N/A   Clear
7:55 PM 30.2 °F 21.3 °F 14.2 °F 51% 30.27 in 10.0 mi North 10.4 mph - N/A   Clear
8:55 PM 28.2 °F 18.9 °F 14.5 °F 57% 30.28 in 10.0 mi North 10.4 mph - N/A   Clear
9:55 PM 27.0 °F 18.0 °F 13.3 °F 56% 30.31 in 10.0 mi North 9.2 mph - N/A   Clear
10:55 PM 24.6 °F 15.8 °F 12.9 °F 61% 30.32 in 10.0 mi North 8.1 mph - N/A   Clear
11:55 PM 22.8 °F 16.7 °F 13.1 °F 66% 30.31 in 10.0 mi NNW 4.6 mph - N/A   Partly Cloudy